This is the latest recevied weather packets stored in our database for station/object N3OZD-10. If no packets are shown the sender has not sent any weather packets the latest 10 day(s).
| Time | Temp. | Humidity | Pressure | Rain* | Wind** | Luminosity | Snow |
|---|---|---|---|---|---|---|---|
| 1777898846 | 13.33° C | 55% | 1014.5 hPa | 0 mm | - | - | - |
| 1777898546 | 13.33° C | 56% | 1014.6 hPa | 0 mm | - | - | - |
| 1777898248 | 12.78° C | 59% | 1014.5 hPa | 0 mm | - | - | - |
| 1777897946 | 12.22° C | 65% | 1014.5 hPa | 0 mm | - | - | - |
| 1777897646 | 12.22° C | 59% | 1014.5 hPa | 0 mm | - | - | - |
| 1777897346 | 12.78° C | 60% | 1014.6 hPa | 0 mm | - | - | - |
| 1777897049 | 12.22° C | 65% | 1014.7 hPa | 0 mm | - | - | - |
| 1777896746 | 11.67° C | 65% | 1014.7 hPa | 0 mm | - | - | - |
| 1777896446 | 11.11° C | 67% | 1014.7 hPa | 0 mm | - | - | - |
| 1777896146 | 11.67° C | 67% | 1014.7 hPa | 0 mm | - | - | - |
| 1777895849 | 11.67° C | 66% | 1014.8 hPa | 0.51 mm | - | - | - |
| 1777895621 | 11.11° C | 66% | 1014.8 hPa | 0.51 mm | - | - | - |
| 1777895546 | 11.11° C | 67% | 1014.8 hPa | 0.51 mm | - | - | - |
| 1777895246 | 11.11° C | 66% | 1014.8 hPa | 0.51 mm | - | - | - |
| 1777894946 | 10.56° C | 67% | 1014.8 hPa | 0.51 mm | - | - | - |
| 1777894647 | 10.56° C | 67% | 1014.8 hPa | 0.51 mm | - | - | - |
| 1777894348 | 10.56° C | 66% | 1014.9 hPa | 0.51 mm | - | - | - |
| 1777894046 | 10.56° C | 66% | 1014.9 hPa | 0.51 mm | - | - | - |
| 1777893749 | 10° C | 67% | 1014.9 hPa | 0.51 mm | - | - | - |
| 1777893447 | 10° C | 70% | 1015.1 hPa | 0.51 mm | - | - | - |
| 1777893146 | 9.44° C | 74% | 1015.1 hPa | 0.51 mm | - | - | - |
| 1777892847 | 8.89° C | 74% | 1015 hPa | 0.51 mm | - | - | - |
| 1777892547 | 8.33° C | 74% | 1015.1 hPa | 0.25 mm | - | - | - |
| 1777892246 | 8.33° C | 74% | 1015 hPa | 0 mm | - | - | - |
| 1777891946 | 8.33° C | 74% | 1015 hPa | 0 mm | - | - | - |
* Rain latest hour (hover to see other rain measurements)
** Current wind speed in m/s (hover to see current wind gust speed)